This is the latest recevied weather packets stored in our database for station/object KF7SOJ. If no packets are shown the sender has not sent any weather packets the latest 10 day(s).
| Time | Temp. | Humidity | Pressure | Rain* | Wind** | Luminosity | Snow |
|---|---|---|---|---|---|---|---|
| 1777797068 | 10.56° C | 59% | 931.9 hPa | 0 mm | - | 0 W/m² | - |
| 1777796765 | 10.56° C | 59% | 931.8 hPa | 0 mm | - | 0 W/m² | - |
| 1777796462 | 10.56° C | 59% | 931.9 hPa | 0 mm | - | 0 W/m² | - |
| 1777796162 | 10° C | 60% | 931.8 hPa | 0 mm | - | 0 W/m² | - |
| 1777795859 | 10° C | 62% | 931.8 hPa | 0 mm | - | 0 W/m² | - |
| 1777795554 | 10° C | 61% | 931.7 hPa | 0 mm | - | 0 W/m² | - |
| 1777795252 | 10.56° C | 60% | 931.6 hPa | 0 mm | - | 0 W/m² | - |
| 1777794948 | 10.56° C | 58% | 931.6 hPa | 0 mm | - | 0 W/m² | - |
| 1777794645 | 10.56° C | 58% | 931.7 hPa | 0 mm | - | 0 W/m² | - |
| 1777794036 | 11.11° C | 59% | 931.6 hPa | 0 mm | - | 0 W/m² | - |
| 1777793733 | 10.56° C | 59% | 931.7 hPa | 0 mm | - | 0 W/m² | - |
| 1777793432 | 11.11° C | 59% | 931.6 hPa | 0 mm | - | 0 W/m² | - |
| 1777793129 | 11.11° C | 58% | 931.8 hPa | 0 mm | - | 0 W/m² | - |
| 1777792826 | 11.11° C | 59% | 931.8 hPa | 0 mm | - | 0 W/m² | - |
| 1777792522 | 11.67° C | 58% | 931.8 hPa | 0 mm | - | 0 W/m² | - |
| 1777792219 | 11.67° C | 57% | 932.1 hPa | 0 mm | - | 0 W/m² | - |
| 1777791916 | 11.67° C | 58% | 932 hPa | 0 mm | - | 0 W/m² | - |
| 1777791614 | 11.67° C | 59% | 932.1 hPa | 0 mm | - | 0 W/m² | - |
| 1777791311 | 12.78° C | 55% | 932.1 hPa | 0 mm | - | 0 W/m² | - |
| 1777791008 | 12.78° C | 53% | 932.2 hPa | 0 mm | - | 0 W/m² | - |
| 1777790403 | 13.33° C | 51% | 932.2 hPa | 0 mm | - | 0 W/m² | - |
| 1777790100 | 13.33° C | 52% | 932.3 hPa | 0 mm | - | 0 W/m² | - |
| 1777789799 | 13.89° C | 51% | 932.3 hPa | 0 mm | - | 0 W/m² | - |
| 1777789497 | 13.89° C | 51% | 932.4 hPa | 0 mm | - | 0 W/m² | - |
| 1777789195 | 13.89° C | 49% | 932.2 hPa | 0 mm | - | 0 W/m² | - |
* Rain latest hour (hover to see other rain measurements)
** Current wind speed in m/s (hover to see current wind gust speed)